Tracking 19796 objects as of 19-Jul-2019
HD Live streaming from Space Station
objects crossing your sky now

COSMOS 877

Track COSMOS 877 now!
10-day predictions
COSMOS 877 is classified as:


NORAD ID: 9594
Int'l Code: 1976-118G
Perigee: 1,461.6 km
Apogee: 1,470.9 km
Inclination: 74.0 °
Period: 115.1 minutes
Semi major axis: 7837 km
RCS: 0.6978 m2 (medium)
Launch date: December 7, 1976
Source: Commonwealth of Independent States (former USSR) (CIS)
Launch site: PLESETSK MISSILE AND SPACE COMPLEX (PKMTR)
aabbcc
Your satellite tracking list
Your tracking list is empty




NASA's NSSDC Master Catalog

Two Line Element Set (TLE):
1  9594U 76118G   19199.91274383 -.00000013 +00000-0 +15893-4 0  9991
2  9594 074.0307 033.8607 0005946 055.4983 077.7124 12.51297235946379
Source of the keplerian elements: AFSPC